KATL

Atlanta/Hartsfield-Jackson International

Airport
ICAO code
KATL
IATA Code
ATL
Summary
ICAO Region
NAM
ICAO Territory
Location

Atlanta, Georgia

Serving
Atlanta
Elevation
1026 ft
Coordinates
33° 38' 25" N , 84° 25' 38" W
KCC
Airport LOS
Parallel Runway Operation
Metar
Observation
KATL 021552Z 10007KT 10SM FEW026 BKN036 BKN140 11/M02 A3047 RMK AO2 SLP322 VIRGA W-N T01061017
Station
Atlanta, Hartsfield - Jackson Atlanta International Airport
Date/Time
2022-12-02 15:52:00
Wind direction
100°
Wind speed
07 kts
Lowest cloud amount
few clouds
Temperature
10.6°C
Dew point
-1.7°C
Humidity
42%
Weather condition
n/a

Description

International airport serving Atlanta, Georgia.

Climatology

Humid “subtropical” climate (Köppen climate classification Cfa) - characterized by hot, humid summers and cool winters. Significant amounts of precipitation occur in all seasons in most areas. Winter rainfall (and sometimes snowfall) is associated with large storms that the westerlies steer from west to east. Most summer rainfall occurs during thunderstorms and occasional tropical storms (hurricanes).

SKYbrary Partners:

Safety knowledge contributed by: